{"data":{"norad_id":64218,"intl_designator":"2025-117R","name":"STARLINK-34300","alt_names":[],"object_type":"PAYLOAD","status":"ACTIVE","operator":null,"country":"US","launch_date":"2025-05-31","launch_site_code":"AFWTR","launch_vehicle":null,"mission":null,"orbit_class":"UNKNOWN","rcs_meters":null,"size_class":null,"mass_kg":null,"dimensions":null,"purposes":["comms"],"wikipedia_slug":null,"has_3d_model":false,"image_url":null,"decayed_at":null,"tle_current":{"epoch":"2026-09-20T14:09:04.402656Z","epoch_age_seconds":129914,"freshness":"FRESH","line1":"1 64218U 25117R   26263.58963429  .00007751  00000+0  24031-3 0  9994","line2":"2 64218  53.1551 213.0438 0001804  94.3962 265.7246 15.34397309 74388","mean_motion":15.34397309,"eccentricity":0.0001804,"inclination_deg":53.1551,"raan_deg":213.0438,"arg_perigee_deg":94.3962,"mean_anomaly_deg":265.7246,"bstar":0.00024031,"rev_number":7438,"period_min":93.847922669943,"perigee_km":461.47714941568,"apogee_km":463.94532746011,"semimajor_km":6840.8482384379,"source":"CELESTRAK","updated_at":"2026-09-21T09:00:35.273171Z"}}}